Find Starlink 3173

NORAD ID: 51111 Int'l Des: 2022-005 Owner: SPXS Country: US Constellation: starlink operational
LEOCIRCULAR

現在のビュー

3D地球を読み込み中...

About Starlink 3173

Starlink 3173 (NORAD 51111) is a starlink constellation satellite (v1.5) launched Jan 19, 2022 by SPXS of US. It operates in LEO, CIRCULAR orbit with a mass of 297.00 kg.

次回通過

Passes for default location (London). Set your location on the main map for personalized predictions.

高度履歴

Loading altitude history...

軌道要素

1 51111U 22005H 26264.85205398 .00000806 00000-0 34006-4 0 9999
2 51111 53.1593 117.7265 0001254 83.5643 276.5503 15.35398762258638
Epoch: Sep 21, 2026 • Age: 10 hours

現在のステータス

高度 465.2 km
遠地点 / 近地点 N/A
速度 7.64 km/s
衛星直下点 52.32°N, 96.86°E
打ち上げ日 Jan 19, 2022
運用期間 4.6 years
タイプ internet

技術仕様

分類 Payload
質量 297.00 kg
乾燥質量 275.00 kg
長さ 0.20 m
スパン 9.00 m
形状 ? Box + pan
製造者 SPXS
バスタイプ Starlink
フェーズステータス In Orbit
所有者/国 SPXS/US

Most Searched